www.pogodaiklimat.ru

Погода и климат >> Архив погоды >> Казахстан >> Алматы


АРХИВ ПОГОДЫ в Алматы

Время (UTC), дата Ветер
(напр.,м/с)
 
Видим.   Явления Облачность Т
(С)
Тd
(С)
f
(%)
Тe
(С)
Тes
(С)
Комфортность P
(гПа)
Po
(гПа)
Тmin
(С)
Tmax
(С)
R
(мм)
R24
(мм)
S
(см)
00 11.01 ЮЗ 1
{5}
н/о 10/0
[Ci fib]
+1.9 -8.1 47 +1 +1 тепло 1025.4 924.1
03 11.01 В 1 10 км 10/10 1000 м
[Cb cap]
+1.5 -2.4 75 -0 -0 по сезону 1029.1 927.4 6
06 11.01 ЮЗ 1 500 м ливневой снег 10/10 600 м
[Cb cap]
-0.9 -1.9 93 -3 -3 по сезону 1031.5 928.7 -4.5
09 11.01 штиль 0 200 м ливневой снег 10/10 300 м
[Cb cap]
-2.2 -3.4 91 -3 -3 по сезону 1032.6 929.2
12 11.01 ЮЗ 1 1000 м ливневой снег 10/10 300 м
[Cb cap]
-3.5 -4.6 92 -6 -6 прохладно 1034.1 930.1
15 11.01 штиль 0 н/о {ливн. осадки} 10/10 300 м
[Cb cap]
-3.5 -4.9 90 -5 -5 по сезону 1033.7 929.7 +1.6
18 11.01 штиль 0 н/о слабый ливневой снег 10/10 600 м
[Cb cap]
-4.1 -5.9 87 -5 -5 по сезону 1032.8 928.7 +1.6 7
21 11.01 штиль 0 н/о {ливн. осадки} 10/10 600 м
[Cb cap]
-4.8 -6.1 91 -6 -6 по сезону 1031.6 927.3
00 12.01 штиль 0
{7}
н/о 10/10 600 м
[Cb cap]
-4.8 -6.1 91 -6 -6 по сезону 1032.3 927.9
03 12.01 ЮЗ 1 4000 м слабый ливневой снег 10/10 600 м
[Cb cap]
-5.3 -6.7 90 -8 -8 прохладно 1032.9 928.3 20
06 12.01 СВ 1 4000 м дымка {ливн. осадки} 10/10 600 м
[St]
-5.0 -6.3 91 -7 -7 прохладно 1032.5 928.0 -5.5 0.7
09 12.01 штиль 0 4000 м дымка {ливн. осадки} 10/10 600 м
[Cb cap]
-4.6 -6.5 87 -6 -6 прохладно 1031.9 927.6
12 12.01 штиль 0 4000 м дымка 10/10 600 м
[Cb cap]
-4.7 -6.0 91 -6 -6 прохладно 1032.4 928.1
15 12.01 штиль 0 н/о дымка 10/10 600 м
[Cb cap]
-5.5 -6.9 90 -6 -6 по сезону 1031.8 927.2 -3.1
18 12.01 штиль 0 н/о дымка 10/0
[Ac As]
-7.1 -8.0 93 -8 -8 по сезону 1028.6 923.7 -3.1 0.0
21 12.01 штиль 0 н/о дымка 10/10 600 м
[Cb cap]
-5.5 -6.9 90 -6 -6 по сезону 1031.8 927.2 -3.1
00 13.01 штиль 0
{2}
н/о дымка 10/0
[Ac As]
-6.5 -7.3 94 -7 -7 по сезону 1025.2 921.0
03 13.01 штиль 0 1000 м дымка 10/10 300 м
[St]
-6.1 -7.2 92 -7 -7 прохладно 1024.8 920.8 16
06 13.01 З 1 10 км 10/6 600 м
[Cb cap Ac und Ci sp]
-3.1 -5.7 82 -5 -4 прохладно 1021.5 918.9 -7.2
09 13.01 Ю 1 10 км 10/6 600 м
[Cb cap Ac As]
-3.2 -6.5 78 -5 -5 по сезону 1020.8 918.2
12 13.01 ЮЗ 1 10 км слабый ливневой снег 10/10 600 м
[Cb cap]
-2.6 -7.2 71 -5 -5 по сезону 1022.3 919.7
15 13.01 штиль 0 н/о {ливн. осадки} 10/10 600 м
[Cb cap]
-3.5 -7.6 73 -4 -4 по сезону 1023.8 920.8 -2.1
18 13.01 Ю 1 н/о слабый ливневой снег {туман} 10/10 600 м
[Cb cap]
-4.4 -5.6 91 -7 -7 по сезону 1026.3 922.7 -2.1 0.0
21 13.01 штиль 0 н/о ливневой снег 10/10 300 м
[Cb cap]
-4.6 -5.9 91 -6 -6 по сезону 1027.4 923.6
00 14.01 С 1
{2}
н/о ливневой снег 10/10 300 м
[Cb cap]
-5.4 -6.8 90 -8 -8 по сезону 1028.7 924.5
03 14.01 штиль 0 4000 м слабый ливневой снег 10/10 300 м
[Cb cap]
-5.6 -6.7 92 -7 -7 прохладно 1030.0 925.5 19
06 14.01 штиль 0 10 км {ливн. осадки} 10/3 600 м
[Cb cap Ac trans Ci sp]
-3.3 -6.7 77 -4 -2 по сезону 1029.0 925.5 -5.8 5
09 14.01 штиль 0 4000 м дымка 10/10 600 м
[Cb cap]
-3.7 -5.8 85 -5 -5 по сезону 1028.4 924.9
12 14.01 З 1 4000 м дымка 10/10 600 м
[Cb cap]
-4.4 -5.6 91 -7 -7 прохладно 1028.6 924.8
15 14.01 С 1 н/о дымка 10/10 600 м
[Cb cap]
-4.8 -5.7 93 -7 -7 по сезону 1027.5 923.7 -1.9
18 14.01 штиль 0 н/о дымка 10/0
[As trans Ci fib]
-4.8 -5.4 96 -6 -6 по сезону 1026.0 922.3 -1.9 0.0
21 14.01 штиль 0 н/о дымка 10/3 600 м
[Cb cap Ac trans Ci sp]
-3.8 -5.9 85 -5 -5 по сезону 1022.6 919.6
00 15.01 штиль 0
{3}
н/о дымка 10/10 200 м
[St]
-5.2 -5.9 95 -6 -6 по сезону 1023.8 920.2
03 15.01 штиль 0 500 м ливневой снег 10/10 300 м
[Cb cap]
-2.2 -3.1 94 -3 -3 по сезону 1024.9 922.3 18
06 15.01 штиль 0 500 м ливневой снег 10/10 300 м
[Cb cap]
-2.1 -2.7 96 -3 -3 по сезону 1026.9 924.1 -6.1 1
09 15.01 С 1 1000 м ливневой снег 10/10 300 м
[Cb cap]
-6.1 -7.9 87 -8 -8 холодно 1029.1 924.5
12 15.01 СВ 1 1000 м слабый ливневой снег 10/10 300 м
[Cb cap]
-7.5 -9.2 88 -10 -10 холодно 1031.1 925.8
15 15.01 штиль 0 н/о слабый ливневой снег 10/10 300 м
[Cb cap]
-8.7 -9.8 92 -9 -9 прохладно 1031.9 926.1 -0.4
18 15.01 штиль 0 н/о слабый ливневой снег 10/10 300 м
[Cb cap]
-9.3 -10.9 88 -10 -10 прохладно 1031.1 925.1 -0.4 5
21 15.01 штиль 0 н/о {ливн. осадки} 10/10 600 м
[Cb cap]
-10.7 -12.3 88 -11 -11 прохладно 1030.9 924.4
00 16.01 штиль 0
{3}
н/о {ливн. осадки} 10/10 600 м
[Cb cap]
-10.6 -12.2 88 -11 -11 прохладно 1030.5 924.1
03 16.01 штиль 0 10 км 10/10 600 м
[Cb cap]
-9.5 -11.5 85 -10 -10 холодно 1030.7 924.7 25
06 16.01 штиль 0 10 км 10/10 600 м
[Cb cap]
-8.6 -11.3 81 -9 -9 холодно 1030.4 924.8 -10.9 2
09 16.01 С 1 10 км 10/6 600 м
[Cb cap Ac As]
-8.1 -11.6 76 -10 -10 холодно 1028.9 923.6
12 16.01 штиль 0 10 км 10/0
[Ac As]
-8.5 -11.2 81 -9 -9 холодно 1029.5 924.0
15 16.01 С 1 н/о {ливн. осадки} 10/8 600 м
[Cb cap Ac As]
-9.5 -11.5 85 -12 -12 холодно 1030.4 924.4 -7.2
18 16.01 штиль 0 н/о дымка {ливн. осадки} 10/0
[Ac As]
-9.7 -10.5 94 -10 -10 прохладно 1029.9 923.9 -7.2 0.0
21 16.01 штиль 0 н/о дымка 10/0
[Ac As]
-9.7 -11.3 88 -10 -10 прохладно 1029.5 923.5
00 17.01 штиль 0
{2}
н/о дымка 10/10 300 м
[St]
-10.1 -11.2 92 -11 -11 прохладно 1029.5 923.4
03 17.01 штиль 0 1000 м слабый снег 10/10 300 м
[St]
-9.8 -9.8 100 -10 -10 холодно 1030.9 924.8
06 17.01 штиль 0 200 м дымка {ливн. осадки} 10/0
[Ac As]
-9.7 -10.5 94 -10 -9 холодно 1029.9 923.9 -7.2 0.0
09 17.01 штиль 0 1000 м снежные зёрна 10/10 600 м
[St]
-8.0 -9.8 87 -9 -9 холодно 1031.0 925.5
12 17.01 штиль 0 1000 м дымка {снег} 10/10 600 м
[St]
-8.7 -10.2 89 -9 -9 холодно 1032.4 926.5
15 17.01 С 1 н/о дымка 10/10 600 м
[St]
-9.2 -10.3 92 -12 -12 холодно 1033.1 926.9 -6.5
18 17.01 С 1 н/о дымка 10/10 300 м
[St]
-9.7 -10.5 94 -12 -12 холодно 1034.1 927.7 -6.5 0.2

 

Местоположение метеостанции Алматы (Алматинская область, Казахстан): широта 43.23 долгота 76.93 высота над уровнем моря 851 м.

В архиве по умолчанию представлена погода в Алматы за последнюю неделю. Архивные данные за месяц целиком и за предыдущие месяцы, начиная с января 2011 года, Вы можете получить, выбрав интересующий диапазон дат из раскрывающегося списка и нажав кнопку "Ввод!".

Внимание! Время в таблицах - всемирное. Для получения местного времени необходимо прибавить поправку, которая в Алматы равна 6 ч.

Смотрите также архив погоды в соседних городах и на ближайших метеорологических станциях:

Погода в Алматы АМС (Алматинская область, Казахстан) (4 км)
Погода в Каменском плато (Алматинская область, Казахстан) (6 км)
Погода в Медеу (Алматинская область, Казахстан) (12 км)
Погода в Карасайском (Алматинская область, Казахстан) (15 км)
Погода в Шымбулаке (Алматинская область, Казахстан) (16 км)
Погода в Большом Алматинском озере (Алматинская область, Казахстан) (18 км)
Погода в Альмереке (Алматинская область, Казахстан) (21 км)
Погода в Коныролене (Алматинская область, Казахстан) (24 км)
Погода в Рыскулово (Алматинская область, Казахстан) (30 км)
Погода в Илийском (Алматинская область, Казахстан) (33 км)

Пояснения к столбцам:

Ветер - указаны скорость ветра в м/с - средняя за 10 мин, порывы в срок и между сроками (в фигурных скобках) и направление, откуда дует ветер: С - северный, СВ - северо-восточный, В - восточный, ЮВ - юго-восточный, Ю - южный, ЮЗ - юго-западный, З - западный, СЗ - северо-западный.
Видимость - горизонтальная дальность видимости в метрах или километрах. При видимости от 1 до 10 км при отсутствии осадков обычно наблюдается дымка, при ухудшении видимости до 1 км и менее - туман. В сухую погоду видимость может ухудшаться дымом, пылью или мглою.
Явления - указаны атмосферные явления, наблюдавшиеся в срок или в последний час перед сроком; фигурными скобками обозначены явления, наблюдавшиеся между сроками (за 1-3 часа до срока); квадратными скобками обозначены град или гололедные отложения с указанием их диаметра в мм.
Облачность - указаны через наклонную черту общая и нижняя облачность в баллах и высота нижней границы облаков в метрах; квадратными скобками обозначены формы облаков: Ci - перистые, Cs - перисто-слоистые, Cc - перисто-кучевые, Ac - высококучевые, As - высокослоистые, Sc - слоисто-кучевые, Ns - слоисто-дождевые, Cu - кучевые, Cb - кучево-дождевые. Подробнее классификацию облаков см. в Атласе облаков (PDF).
T - Температура воздуха - температура, измеренная на высоте 2 м над землей.
Td - Температура точки росы - температура, при понижении до которой содержащийся в воздухе водяной пар достигнет насыщения.
f - Относительная влажность воздуха - влажноcть воздуха, измеренная на высоте 2 м над землей.
Te - Эффективная температура - температура, которую ощущает одетый по сезону человек в тени. Характеристика душности погоды. При расчете учитывается влияние влажности воздуха и скорости ветра на теплоощущения человека.
Tes - Эффективная температура на солнце - температура, которую ощущает человек, с поправкой на солнечный нагрев. Характеристика знойности погоды. Зависит от высоты солнца над горизонтом, облачности и скорости ветра. Ночью, в пасмурную погоду, а также при ветре 12 м/с и более поправка равна нулю.
P - Атмосферное давление - приведенное к уровню моря атмосферное давление.
Po - Атмосферное давление - измеренное на уровне метеостанции атмосферное давление.
Tmin - Минимальная температура - минимум температуры воздуха на высоте 2 м над землей.
Tmax - Максимальная температура - максимум температуры воздуха на высоте 2 м над землей.
R - Количество осадков - Количество выпавших осадков за период времени, мм. При наведении курсора мыши на число - период времени, за который выпало указанное количество осадков.
R24 - Количество осадков - Количество выпавших осадков за 24 часа, мм.
S - Снежный покров - Высота снежного покрова, см. При наведении курсора мыши на число - состояние снежного покрова и степень покрытия местности в баллах.